Weather Service Report


570 
ASCA44 KEWX 292011
RWRMX 

LATIN AMERICA AND CARIBBEAN REGIONAL WEATHER ROUNDUP
NATIONAL WEATHER SERVICE AUSTIN/SAN ANTONIO TX
300 PM CDT SUN MAR 29 2015

NOTE: "FAIR" INDICATED FEW OR NO CLOUDS BELOW 12,000 FEET WITH NO
SIGNIFICANT WEATHER AND/OR OBSTRUCTIONS TO VISIBILITY.

BAJA CALIFORNIA
  
CITY           SKY/WX    TMP DP  RH WIND       PRES   REMARKS
LORETO           N/A    N/A N/A N/A MISG        N/A                   
LA PAZ         SUNNY     91  28  10 NW12      29.99F                  
MEXICALI       PTSUNNY   91  23   8 CALM      29.96F                  
S.J. DEL CABO  SUNNY     84  63  48 SE17      30.01F                  
TIJUANA        PTSUNNY   68  55  64 W12       30.07S                  

NORTHWESTERN MEXICO
  
CITY           SKY/WX    TMP DP  RH WIND       PRES   REMARKS
CULIACAN       SUNNY     91  66  43 S9        30.00F HX  94           
DURANGO        SUNNY     75  21  13 E3        30.33F                  
GUAYMAS        PTSUNNY   88  61  40 CALM      29.95F                  
HERMOSILLO     PTSUNNY   93  39  15 CALM      30.02F                  
CD. JUAREZ     PTSUNNY   84  32  15 CALM      30.11F                  
LOS MOCHIS     SUNNY     86  50  28 S9        30.01F                  
OBREGON        PTSUNNY   88  55  33 S8        29.98F                  

NORTHEASTERN MEXICO
  
CITY           SKY/WX    TMP DP  RH WIND       PRES   REMARKS
CHIHUAHUA      MOSUNNY   84  27  12 E14       30.21F                  
MATAMOROS      PTSUNNY   81  68  65 SE23      30.15F                  
MONCLOVA       SUNNY     90  52  27 CALM      30.02                   
MONTERREY      MOSUNNY   84  57  39 E8        30.04F                  
NUEVO LAREDO   SUNNY     86  63  45 SE12      30.05F                  
PIEDRAS NEGRAS SUNNY     82  55  39 SE7       30.03F                  
REYNOSA        SUNNY     81  55  41 S23G35    30.08F                  
SALTILLO       SUNNY     84  43  23 N7        30.24F                  
TORREON        SUNNY     84  36  17 CALM      30.19F                  
CD. VICTORIA   SUNNY     84  55  37 E10       30.07F                  

WESTERN MEXICO
  
CITY           SKY/WX    TMP DP  RH WIND       PRES   REMARKS
AGUASCALIENTES SUNNY     72  23  16 N6        30.33F                  
COLIMA         MOSUNNY   77  45  31 SW9       30.36R                  
DEL BAJIO      MOSUNNY   77  45  31 SW9       30.36F                  
GUADALAJARA    MOSUNNY   81  37  21 E12       30.25F                  
MANZANILLO     SUNNY     84  72  65 SW12      29.99F                  
MAZATLAN       SUNNY     84  54  34 SW14      29.98F                  
P. VALLARTA    SUNNY     81  70  69 SW12      29.99F                  
URUAPAN        MOSUNNY   73  57  56 S12       30.26F                  
ZACATECAS      MOSUNNY   73  32  21 CALM      30.35F                  

CENTRAL MEXICO
  
CITY           SKY/WX    TMP DP  RH WIND       PRES   REMARKS
CUERNAVACA     PTSUNNY   81  46  30 S9        30.20F                  
MEXICO CITY    PTSUNNY   68  39  34 SW15      30.38F                  
MORELIA        MOSUNNY   75  36  23 CALM      30.30F                  
POZA RICA      PTSUNNY   84  66  54 E7        30.13F                  
PUEBLA         PTSUNNY   70  43  37 S6        30.39F                  
QUERETARO      PTSUNNY   75  39  27 CALM      30.35F                  
S. LUIS POTOSI MOSUNNY   73  28  19 W5        30.31F                  
TAMPICO        SUNNY     79  63  57 SE17      30.12F                  
TOLUCA         PTSUNNY   70  30  23 W7        30.44F                  

SOUTHERN MEXICO
  
CITY           SKY/WX    TMP DP  RH WIND       PRES   REMARKS
ACAPULCO       SUNNY     86  73  66 SW13      29.94F HX  93           
B. DE HUATULCO PTSUNNY   84  77  79 S9        29.99F HX  94           
OAXACA         PTSUNNY   79  45  29 W6        30.25F                  
P. ESCONDIDO     N/A     84  75  74 S12       30.11S HX  92           
VERACRUZ       MOSUNNY   79  59  50 E12       30.11F                  
ZIHUATANEJO    SUNNY     86  72  62 SW12      29.96F HX  92           

YUCATAN PENINSULA
  
CITY           SKY/WX    TMP DP  RH WIND       PRES   REMARKS
CAMPECHE       PTSUNNY   82  66  57 NW12G23   30.06F                  
CANCUN         MOSUNNY   81  61  50 E12G23    30.17F                  
CHETUMAL       PTSUNNY   81  68  65 E17       30.07F                  
CD. DEL CARMEN PTSUNNY   81  68  65 N8        30.09F                  
COZUMEL        PTSUNNY   75  64  69 E16       30.15F                  
MERIDA         PTSUNNY   91  57  31 NE6       30.09F HX  90           
MINATITLAN     CLOUDY    79  68  69 N12       30.06F                  
TAPACHULA      MOSUNNY   90  72  55 W9        29.93F HX  96           
TUX. GUTIERREZ PTSUNNY   82  61  47 NW16      30.03F                  
VILLAHERMOSA   PTSUNNY   81  70  69 CALM      30.10F                  

CENTRAL AMERICA
  
CITY           SKY/WX    TMP DP  RH WIND       PRES   REMARKS
BELIZE CITY    PTSUNNY   81  75  83 S3        30.04F                  
MANAGUA        PTCLDY    97  61  30 E16       29.89F HX  97           

CARIBBEAN
  
CITY           SKY/WX    TMP DP  RH WIND       PRES   REMARKS
ARUBA          MOSUNNY   88  75  66 E15       29.92R HX  97           
CURACAO        MOSUNNY   86  70  58 E15       29.92F HX  90           
KINGSTON       PTSUNNY   84  73  70 S10       30.00S HX  91           
NASSAU         PTSUNNY   73  55  53 N13       30.22S                  
SAN JUAN       MOSUNNY   84  66  54 E15       30.01F                  
SANTO DOMINGO  MOSUNNY   84  72  65 S7        30.00F                  
ST. CROIX      SUNNY     82  66  57 SE12      30.04                   
ST. KITTS      MOSUNNY   82  66  57 E16       30.03S                  
ST. MAARTEN    PTSUNNY   82  70  65 SE13      30.03S                  
ST. THOMAS     SUNNY     82  66  57 E13       30.03                   

$$


Return to Home page


Western Regional Climate Center, wrcc@dri.edu